Terug naar catalogus

STARLINK-34038

ActiefCommunicatieVLEO
NORAD 63911·PAYLOAD·🇺🇸 United States

Gelanceerd May 10, 2025 vanaf Cape Canaveral Space Force Station

Loading…

Volgende Passages (komende 24 uur)

TLE

VersSource: CelesTrak SupGP

Epoch: Sep 14, 2026, 20:58 UTC

1 63911C 25095X   26257.87409722  .00008459  00000+0  30629-3 0  2577
2 63911  42.9997 187.8303 0001359 257.9870 358.3799 15.27584915    10

Volg STARLINK-34038 in realtime met AllMySat

Download on the App Store